Time,TemperatureF,DewpointF,PressureIn,WindDirection,WindDirectionDegrees,WindSpeedMPH,WindSpeedGustMPH,Humidity,HourlyPrecipIn,Conditions,Clouds,dailyrainin,SoftwareType,DateUTC
2013-11-24 00:12:00,25.0,17.0,29.69,NW,308,7.0,14.0,72,0.00,,,0.05,,2013-11-24 05:12:00,
2013-11-24 00:23:00,25.0,18.0,29.68,WNW,284,8.0,18.0,73,0.00,,,0.05,,2013-11-24 05:23:00,
2013-11-24 00:43:00,25.0,18.0,29.68,WNW,295,7.0,16.0,73,0.00,,,0.05,,2013-11-24 05:43:00,
2013-11-24 00:53:00,24.0,17.0,29.67,WNW,291,8.0,17.0,74,0.00,,,0.05,,2013-11-24 05:53:00,
2013-11-24 01:12:00,24.0,15.0,29.67,NW,316,10.0,19.0,69,0.00,,,0.05,,2013-11-24 06:12:00,
2013-11-24 01:22:00,24.0,15.0,29.66,WNW,292,11.0,25.0,68,0.00,,,0.05,,2013-11-24 06:22:00,
2013-11-24 01:42:00,23.0,12.0,29.68,West,265,11.0,29.0,63,0.00,,,0.03,,2013-11-24 06:42:00,
2013-11-24 01:52:00,22.0,11.0,29.68,WNW,299,11.0,22.0,62,0.00,,,0.03,,2013-11-24 06:52:00,
2013-11-24 02:11:00,21.0,10.0,29.68,WNW,297,13.0,27.0,62,0.00,,,0.03,,2013-11-24 07:11:00,
2013-11-24 02:22:00,20.0,9.0,29.69,NW,317,12.0,26.0,62,0.00,,,0.03,,2013-11-24 07:22:00,
2013-11-24 02:42:00,20.0,9.0,29.69,WNW,301,10.0,27.0,63,0.00,,,0.01,,2013-11-24 07:42:00,
2013-11-24 02:52:00,20.0,10.0,29.69,WNW,288,11.0,24.0,64,0.00,,,0.01,,2013-11-24 07:52:00,
2013-11-24 03:22:00,20.0,9.0,29.69,WNW,288,10.0,26.0,62,0.00,,,0.01,,2013-11-24 08:22:00,
2013-11-24 03:42:00,19.0,8.0,29.68,WNW,300,14.0,30.0,61,0.00,,,0.01,,2013-11-24 08:42:00,
2013-11-24 03:53:00,19.0,8.0,29.69,WNW,283,12.0,26.0,61,0.00,,,0.01,,2013-11-24 08:53:00,
2013-11-24 04:12:00,19.0,8.0,29.69,WNW,303,8.0,26.0,62,0.00,,,0.01,,2013-11-24 09:12:00,
2013-11-24 04:22:00,19.0,8.0,29.69,NW,305,9.0,24.0,61,0.00,,,0.01,,2013-11-24 09:22:00,
2013-11-24 04:43:00,18.0,7.0,29.69,NW,311,11.0,23.0,62,0.00,,,0.01,,2013-11-24 09:43:00,
2013-11-24 04:53:00,18.0,8.0,29.69,NW,307,9.0,22.0,63,0.00,,,0.01,,2013-11-24 09:53:00,
2013-11-24 05:23:00,18.0,8.0,29.69,WNW,296,13.0,27.0,64,0.00,,,0.01,,2013-11-24 10:23:00,
2013-11-24 05:43:00,18.0,8.0,29.69,NW,305,14.0,26.0,64,0.00,,,0.00,,2013-11-24 10:43:00,
2013-11-24 05:53:00,18.0,8.0,29.69,West,270,10.0,25.0,64,0.00,,,0.00,,2013-11-24 10:53:00,
2013-11-24 06:22:00,18.0,7.0,29.67,WNW,291,13.0,32.0,61,0.00,,,0.00,,2013-11-24 11:22:00,
2013-11-24 06:43:00,18.0,7.0,29.67,NNE,29,10.0,26.0,61,0.00,,,0.00,,2013-11-24 11:43:00,
2013-11-24 06:53:00,18.0,7.0,29.68,NW,308,7.0,26.0,62,0.00,,,0.00,,2013-11-24 11:53:00,
2013-11-24 07:12:00,18.0,7.0,29.68,WNW,295,13.0,27.0,62,0.00,,,0.00,,2013-11-24 12:12:00,
2013-11-24 07:22:00,18.0,7.0,29.68,WNW,303,12.0,28.0,62,0.00,,,0.00,,2013-11-24 12:22:00,
2013-11-24 07:42:00,18.0,6.0,29.67,NW,316,17.0,39.0,58,0.00,,,0.00,,2013-11-24 12:42:00,
2013-11-24 07:53:00,18.0,6.0,29.69,WNW,289,7.0,24.0,59,0.00,,,0.00,,2013-11-24 12:53:00,
2013-11-24 08:22:00,19.0,7.0,29.69,WNW,300,7.0,23.0,58,0.00,,,0.00,,2013-11-24 13:22:00,
2013-11-24 08:42:00,19.0,6.0,29.70,NNW,334,13.0,27.0,57,0.00,,,0.00,,2013-11-24 13:42:00,
2013-11-24 08:52:00,19.0,6.0,29.69,NW,314,15.0,27.0,56,0.00,,,0.00,,2013-11-24 13:52:00,
2013-11-24 09:11:00,19.0,6.0,29.70,West,280,14.0,31.0,56,0.00,,,0.00,,2013-11-24 14:11:00,
2013-11-24 09:22:00,19.0,6.0,29.69,WNW,303,15.0,32.0,55,0.00,,,0.00,,2013-11-24 14:22:00,
2013-11-24 09:42:00,19.0,6.0,29.69,NNW,342,12.0,27.0,55,0.00,,,0.00,,2013-11-24 14:42:00,
2013-11-24 09:52:00,20.0,6.0,29.68,WNW,293,19.0,33.0,53,0.00,,,0.00,,2013-11-24 14:52:00,
2013-11-24 10:12:00,20.0,6.0,29.69,NW,316,17.0,32.0,53,0.00,,,0.00,,2013-11-24 15:12:00,
2013-11-24 10:22:00,20.0,5.0,29.69,West,277,15.0,31.0,51,0.00,,,0.00,,2013-11-24 15:22:00,
2013-11-24 10:44:00,20.0,4.0,29.69,NNW,343,17.0,32.0,50,0.00,,,0.00,,2013-11-24 15:44:00,
2013-11-24 10:53:00,20.0,4.0,29.68,South,178,16.0,38.0,50,0.00,,,0.00,,2013-11-24 15:53:00,
2013-11-24 11:23:00,20.0,4.0,29.68,WNW,302,18.0,41.0,49,0.01,,,0.01,,2013-11-24 16:23:00,
2013-11-24 11:43:00,21.0,5.0,29.69,WNW,291,15.0,38.0,49,0.01,,,0.01,,2013-11-24 16:43:00,
2013-11-24 11:53:00,20.0,4.0,29.69,NW,318,13.0,24.0,50,0.01,,,0.01,,2013-11-24 16:53:00,
2013-11-24 12:12:00,21.0,6.0,29.69,NW,310,11.0,31.0,51,0.00,,,0.01,,2013-11-24 17:12:00,
2013-11-24 12:23:00,21.0,5.0,29.68,WNW,299,18.0,31.0,49,0.00,,,0.01,,2013-11-24 17:23:00,
2013-11-24 12:43:00,21.0,4.0,29.69,NNW,343,16.0,38.0,47,0.00,,,0.01,,2013-11-24 17:43:00,
2013-11-24 12:52:00,21.0,3.0,29.69,NW,316,18.0,35.0,45,0.00,,,0.01,,2013-11-24 17:52:00,
2013-11-24 13:22:00,20.0,3.0,29.70,NW,324,15.0,36.0,47,0.00,,,0.01,,2013-11-24 18:22:00,
2013-11-24 13:42:00,20.0,3.0,29.70,NW,326,14.0,37.0,47,0.00,,,0.01,,2013-11-24 18:42:00,
2013-11-24 13:52:00,20.0,3.0,29.71,West,276,15.0,33.0,47,0.00,,,0.01,,2013-11-24 18:52:00,
2013-11-24 14:12:00,20.0,3.0,29.72,NNW,337,15.0,33.0,47,0.00,,,0.01,,2013-11-24 19:12:00,
2013-11-24 14:22:00,20.0,4.0,29.72,NW,313,14.0,36.0,48,0.00,,,0.01,,2013-11-24 19:22:00,
2013-11-24 14:42:00,19.0,3.0,29.73,WNW,287,12.0,36.0,48,0.00,,,0.01,,2013-11-24 19:42:00,
2013-11-24 14:52:00,19.0,2.0,29.74,NNW,337,16.0,38.0,47,0.00,,,0.01,,2013-11-24 19:52:00,
2013-11-24 15:12:00,19.0,3.0,29.74,WNW,291,13.0,33.0,48,0.00,,,0.01,,2013-11-24 20:12:00,
2013-11-24 15:22:00,19.0,2.0,29.76,NW,312,17.0,36.0,47,0.00,,,0.01,,2013-11-24 20:22:00,
2013-11-24 15:42:00,19.0,3.0,29.78,NNW,334,9.0,26.0,49,0.00,,,0.01,,2013-11-24 20:42:00,
2013-11-24 15:52:00,19.0,3.0,29.79,NW,323,14.0,28.0,50,0.00,,,0.01,,2013-11-24 20:52:00,
2013-11-24 16:11:00,19.0,4.0,29.78,West,277,19.0,37.0,51,0.00,,,0.01,,2013-11-24 21:11:00,
2013-11-24 16:22:00,19.0,4.0,29.80,WNW,287,12.0,28.0,51,0.00,,,0.01,,2013-11-24 21:22:00,
2013-11-24 16:43:00,18.0,3.0,29.81,WNW,291,10.0,27.0,52,0.00,,,0.01,,2013-11-24 21:43:00,
2013-11-24 16:54:00,18.0,3.0,29.81,NW,313,12.0,32.0,52,0.00,,,0.01,,2013-11-24 21:54:00,
2013-11-24 17:13:00,18.0,4.0,29.81,West,262,15.0,26.0,53,0.00,,,0.01,,2013-11-24 22:13:00,
2013-11-24 17:23:00,18.0,4.0,29.82,WNW,297,11.0,28.0,54,0.00,,,0.01,,2013-11-24 22:23:00,
2013-11-24 17:43:00,18.0,4.0,29.82,NNW,332,19.0,35.0,53,0.00,,,0.01,,2013-11-24 22:43:00,
2013-11-24 17:53:00,18.0,4.0,29.83,WNW,295,17.0,39.0,54,0.00,,,0.01,,2013-11-24 22:53:00,
2013-11-24 18:12:00,18.0,4.0,29.83,WSW,254,16.0,34.0,54,0.00,,,0.01,,2013-11-24 23:12:00,
2013-11-24 18:22:00,18.0,4.0,29.83,NNW,329,16.0,40.0,54,0.00,,,0.01,,2013-11-24 23:22:00,
2013-11-24 18:42:00,18.0,4.0,29.84,WNW,294,18.0,35.0,53,0.00,,,0.01,,2013-11-24 23:42:00,
2013-11-24 18:52:00,18.0,4.0,29.85,WNW,296,15.0,34.0,53,0.00,,,0.01,,2013-11-24 23:52:00,
2013-11-24 19:12:00,17.0,3.0,29.85,WNW,295,15.0,35.0,53,0.00,,,0.01,,2013-11-25 00:12:00,
2013-11-24 19:22:00,18.0,3.0,29.85,WNW,296,14.0,51.0,52,0.01,,,0.02,,2013-11-25 00:22:00,
2013-11-24 19:42:00,17.0,2.0,29.86,WNW,290,20.0,37.0,52,0.01,,,0.02,,2013-11-25 00:42:00,
2013-11-24 19:52:00,17.0,2.0,29.86,NW,308,17.0,36.0,52,0.01,,,0.02,,2013-11-25 00:52:00,
2013-11-24 20:11:00,17.0,2.0,29.86,West,274,17.0,43.0,52,0.01,,,0.02,,2013-11-25 01:11:00,
2013-11-24 20:22:00,17.0,2.0,29.88,WNW,293,14.0,38.0,52,0.00,,,0.02,,2013-11-25 01:22:00,
2013-11-24 20:42:00,17.0,3.0,29.88,NW,316,12.0,28.0,54,0.00,,,0.02,,2013-11-25 01:42:00,
2013-11-24 20:52:00,17.0,3.0,29.88,NW,304,16.0,34.0,54,0.00,,,0.02,,2013-11-25 01:52:00,
2013-11-24 21:22:00,17.0,3.0,29.90,NW,325,15.0,28.0,54,0.00,,,0.02,,2013-11-25 02:22:00,
2013-11-24 21:42:00,17.0,3.0,29.90,West,274,17.0,33.0,54,0.00,,,0.02,,2013-11-25 02:42:00,
2013-11-24 21:52:00,17.0,3.0,29.91,WNW,282,18.0,34.0,54,0.00,,,0.02,,2013-11-25 02:52:00,
2013-11-24 22:11:00,17.0,4.0,29.92,NW,307,9.0,31.0,55,0.00,,,0.02,,2013-11-25 03:11:00,
2013-11-24 22:22:00,17.0,4.0,29.93,NW,324,14.0,26.0,55,0.00,,,0.02,,2013-11-25 03:22:00,
2013-11-24 22:43:00,16.0,3.0,29.93,NW,322,13.0,30.0,55,0.00,,,0.02,,2013-11-25 03:43:00,
2013-11-24 22:53:00,16.0,3.0,29.95,NW,305,15.0,31.0,56,0.00,,,0.02,,2013-11-25 03:53:00,
2013-11-24 23:13:00,16.0,3.0,29.95,NW,318,14.0,33.0,56,0.00,,,0.02,,2013-11-25 04:13:00,
2013-11-24 23:23:00,16.0,3.0,29.95,NW,318,14.0,33.0,56,0.00,,,0.02,,2013-11-25 04:23:00,
2013-11-24 23:43:00,16.0,3.0,29.98,WNW,289,12.0,34.0,57,0.00,,,0.02,,2013-11-25 04:43:00,
2013-11-24 23:53:00,16.0,3.0,29.98,NW,306,15.0,33.0,56,0.00,,,0.02,,2013-11-25 04:53:00,